Time,TemperatureF,DewpointF,PressureIn,WindDirection,WindDirectionDegrees,WindSpeedMPH,WindSpeedGustMPH,Humidity,HourlyPrecipIn,Conditions,Clouds,dailyrainin,SoftwareType,DateUTC
2013-04-02 00:02:00,35.0,26.0,-100.00,SW,235,12.0,16.0,68,-99.99,,,-99.99,,2013-04-02 06:02:00,
2013-04-02 00:12:00,35.0,26.0,-100.00,WSW,240,11.0,14.0,69,-99.99,,,-99.99,,2013-04-02 06:12:00,
2013-04-02 00:22:00,35.0,26.0,-100.00,WSW,240,11.0,14.0,69,-99.99,,,-99.99,,2013-04-02 06:22:00,
2013-04-02 00:32:00,33.0,26.0,-100.00,WSW,255,11.0,13.0,73,-99.99,,,-99.99,,2013-04-02 06:32:00,
2013-04-02 00:42:00,33.0,26.0,-100.00,WSW,255,10.0,12.0,74,-99.99,,,-99.99,,2013-04-02 06:42:00,
2013-04-02 00:52:00,33.0,26.0,-100.00,West,260,8.0,12.0,74,-99.99,,,-99.99,,2013-04-02 06:52:00,
2013-04-02 01:02:00,33.0,26.0,-100.00,West,260,9.0,11.0,75,-99.99,,,-99.99,,2013-04-02 07:02:00,
2013-04-02 01:12:00,33.0,26.0,-100.00,West,265,9.0,10.0,75,-99.99,,,-99.99,,2013-04-02 07:12:00,
2013-04-02 01:22:00,32.0,26.0,-100.00,West,265,9.0,10.0,76,-99.99,,,-99.99,,2013-04-02 07:22:00,
2013-04-02 01:32:00,32.0,26.0,-100.00,West,275,8.0,9.0,78,-99.99,,,-99.99,,2013-04-02 07:32:00,
2013-04-02 01:42:00,32.0,26.0,-100.00,West,275,7.0,9.0,79,-99.99,,,-99.99,,2013-04-02 07:42:00,
2013-04-02 01:52:00,31.0,26.0,-100.00,West,280,7.0,9.0,80,-99.99,,,-99.99,,2013-04-02 07:52:00,
2013-04-02 02:02:00,31.0,26.0,-100.00,West,280,7.0,9.0,80,-99.99,,,-99.99,,2013-04-02 08:02:00,
2013-04-02 02:13:00,31.0,26.0,-100.00,WNW,285,7.0,9.0,81,-99.99,,,-99.99,,2013-04-02 08:13:00,
2013-04-02 02:22:00,31.0,26.0,-100.00,WNW,285,7.0,9.0,81,-99.99,,,-99.99,,2013-04-02 08:22:00,
2013-04-02 02:32:00,30.0,26.0,-100.00,WNW,290,8.0,9.0,83,-99.99,,,-99.99,,2013-04-02 08:32:00,
2013-04-02 02:42:00,29.0,26.0,-100.00,WNW,300,8.0,9.0,85,-99.99,,,-99.99,,2013-04-02 08:42:00,
2013-04-02 02:52:00,30.0,26.0,-100.00,NW,305,9.0,10.0,86,-99.99,,,-99.99,,2013-04-02 08:52:00,
2013-04-02 03:02:00,30.0,27.0,-100.00,NW,305,8.0,10.0,85,-99.99,,,-99.99,,2013-04-02 09:02:00,
2013-04-02 03:12:00,30.0,27.0,-100.00,NW,305,8.0,9.0,86,-99.99,,,-99.99,,2013-04-02 09:12:00,
2013-04-02 03:22:00,31.0,28.0,-100.00,NW,310,6.0,9.0,87,-99.99,,,-99.99,,2013-04-02 09:22:00,
2013-04-02 03:32:00,31.0,28.0,-100.00,NW,310,6.0,7.0,87,-99.99,,,-99.99,,2013-04-02 09:32:00,
2013-04-02 03:43:00,32.0,29.0,-100.00,NW,315,7.0,8.0,88,-99.99,,,-99.99,,2013-04-02 09:43:00,
2013-04-02 03:52:00,33.0,30.0,-100.00,NW,315,6.0,7.0,88,-99.99,,,-99.99,,2013-04-02 09:52:00,
2013-04-02 04:03:00,33.0,30.0,-100.00,NW,310,6.0,9.0,87,-99.99,,,-99.99,,2013-04-02 10:03:00,
2013-04-02 04:13:00,34.0,31.0,-100.00,NW,305,9.0,10.0,86,-99.99,,,-99.99,,2013-04-02 10:13:00,
2013-04-02 04:23:00,33.0,30.0,-100.00,NW,310,8.0,9.0,87,-99.99,,,-99.99,,2013-04-02 10:23:00,
2013-04-02 04:33:00,34.0,30.0,-100.00,NW,305,8.0,10.0,86,-99.99,,,-99.99,,2013-04-02 10:33:00,
2013-04-02 04:42:00,35.0,30.0,-100.00,WNW,295,9.0,10.0,83,-99.99,,,-99.99,,2013-04-02 10:42:00,
2013-04-02 04:52:00,36.0,29.0,-100.00,West,275,11.0,13.0,78,-99.99,,,-99.99,,2013-04-02 10:52:00,
2013-04-02 05:02:00,36.0,29.0,-100.00,West,260,14.0,19.0,73,-99.99,,,-99.99,,2013-04-02 11:02:00,
2013-04-02 05:12:00,37.0,28.0,-100.00,WSW,245,17.0,19.0,71,-99.99,,,-99.99,,2013-04-02 11:12:00,
2013-04-02 05:22:00,36.0,27.0,-100.00,SW,235,14.0,18.0,69,-99.99,,,-99.99,,2013-04-02 11:22:00,
2013-04-02 05:33:00,36.0,27.0,-100.00,SW,235,12.0,15.0,69,-99.99,,,-99.99,,2013-04-02 11:33:00,
2013-04-02 05:43:00,36.0,27.0,-100.00,SW,235,11.0,14.0,69,-99.99,,,-99.99,,2013-04-02 11:43:00,
2013-04-02 05:52:00,35.0,27.0,-100.00,WSW,240,9.0,15.0,70,-99.99,,,-99.99,,2013-04-02 11:52:00,
2013-04-02 06:02:00,35.0,27.0,-100.00,WSW,240,9.0,12.0,70,-99.99,,,-99.99,,2013-04-02 12:02:00,
2013-04-02 06:12:00,35.0,27.0,-100.00,WSW,245,8.0,12.0,71,-99.99,,,-99.99,,2013-04-02 12:12:00,
2013-04-02 06:22:00,35.0,27.0,-100.00,WSW,245,8.0,10.0,71,-99.99,,,-99.99,,2013-04-02 12:22:00,
2013-04-02 06:32:00,35.0,27.0,-100.00,WSW,245,11.0,12.0,71,-99.99,,,-99.99,,2013-04-02 12:32:00,
2013-04-02 06:42:00,35.0,26.0,-100.00,WSW,240,12.0,14.0,69,-99.99,,,-99.99,,2013-04-02 12:42:00,
2013-04-02 06:52:00,35.0,26.0,-100.00,WSW,240,11.0,13.0,70,-99.99,,,-99.99,,2013-04-02 12:52:00,
2013-04-02 07:02:00,34.0,25.0,-100.00,WSW,240,9.0,12.0,70,-99.99,,,-99.99,,2013-04-02 13:02:00,
2013-04-02 07:12:00,34.0,25.0,-100.00,WSW,240,7.0,11.0,70,-99.99,,,-99.99,,2013-04-02 13:12:00,
2013-04-02 07:22:00,35.0,26.0,-100.00,WSW,240,9.0,11.0,69,-99.99,,,-99.99,,2013-04-02 13:22:00,
2013-04-02 07:33:00,36.0,27.0,-100.00,SW,235,9.0,12.0,68,-99.99,,,-99.99,,2013-04-02 13:33:00,
2013-04-02 07:42:00,37.0,26.0,-100.00,SW,225,11.0,14.0,65,-99.99,,,-99.99,,2013-04-02 13:42:00,
2013-04-02 07:52:00,37.0,26.0,-100.00,SW,215,13.0,16.0,64,-99.99,,,-99.99,,2013-04-02 13:52:00,
2013-04-02 08:02:00,37.0,25.0,-100.00,SSW,205,14.0,19.0,61,-99.99,,,-99.99,,2013-04-02 14:02:00,
2013-04-02 08:12:00,38.0,25.0,-100.00,SSW,205,14.0,18.0,60,-99.99,,,-99.99,,2013-04-02 14:12:00,
2013-04-02 08:23:00,38.0,25.0,-100.00,SSW,195,14.0,19.0,58,-99.99,,,-99.99,,2013-04-02 14:23:00,
2013-04-02 08:32:00,38.0,25.0,-100.00,SSW,195,13.0,17.0,58,-99.99,,,-99.99,,2013-04-02 14:32:00,
2013-04-02 08:42:00,38.0,25.0,-100.00,SSW,195,14.0,19.0,58,-99.99,,,-99.99,,2013-04-02 14:42:00,
2013-04-02 08:52:00,38.0,25.0,-100.00,SSW,195,14.0,19.0,58,-99.99,,,-99.99,,2013-04-02 14:52:00,
2013-04-02 09:02:00,38.0,25.0,-100.00,SSW,195,14.0,20.0,58,-99.99,,,-99.99,,2013-04-02 15:02:00,
2013-04-02 09:11:00,38.0,24.0,-100.00,South,190,15.0,19.0,57,-99.99,,,-99.99,,2013-04-02 15:11:00,
2013-04-02 09:22:00,38.0,24.0,-100.00,South,185,15.0,19.0,56,-99.99,,,-99.99,,2013-04-02 15:22:00,
2013-04-02 09:33:00,38.0,24.0,-100.00,South,185,17.0,22.0,56,-99.99,,,-99.99,,2013-04-02 15:33:00,
2013-04-02 09:43:00,38.0,24.0,-100.00,South,190,15.0,22.0,58,-99.99,,,-99.99,,2013-04-02 15:43:00,
2013-04-02 09:55:00,37.0,25.0,-100.00,SSW,200,17.0,21.0,59,-99.99,,,-99.99,,2013-04-02 15:55:00,
2013-04-02 10:04:00,37.0,25.0,-100.00,SSW,200,16.0,20.0,60,-99.99,,,-99.99,,2013-04-02 16:04:00,
2013-04-02 10:13:00,38.0,26.0,-100.00,SSW,205,16.0,19.0,60,-99.99,,,-99.99,,2013-04-02 16:13:00,
2013-04-02 10:24:00,38.0,26.0,-100.00,SSW,205,17.0,21.0,61,-99.99,,,-99.99,,2013-04-02 16:24:00,
2013-04-02 10:35:00,38.0,26.0,-100.00,SSW,210,17.0,21.0,62,-99.99,,,-99.99,,2013-04-02 16:35:00,
2013-04-02 10:43:00,38.0,27.0,-100.00,SSW,210,14.0,20.0,62,-99.99,,,-99.99,,2013-04-02 16:43:00,
2013-04-02 10:53:00,38.0,27.0,-100.00,SW,215,19.0,22.0,63,-99.99,,,-99.99,,2013-04-02 16:53:00,
2013-04-02 11:05:00,38.0,27.0,-100.00,SW,220,20.0,23.0,65,-99.99,,,-99.99,,2013-04-02 17:05:00,
2013-04-02 11:13:00,38.0,29.0,-100.00,SW,235,20.0,24.0,68,-99.99,,,-99.99,,2013-04-02 17:13:00,
2013-04-02 11:24:00,38.0,30.0,-100.00,WSW,245,18.0,24.0,71,-99.99,,,-99.99,,2013-04-02 17:24:00,
2013-04-02 11:34:00,38.0,31.0,-100.00,West,260,18.0,24.0,74,-99.99,,,-99.99,,2013-04-02 17:34:00,
2013-04-02 11:43:00,38.0,31.0,-100.00,West,260,18.0,22.0,75,-99.99,,,-99.99,,2013-04-02 17:43:00,
2013-04-02 11:54:00,38.0,31.0,-100.00,West,260,17.0,23.0,75,-99.99,,,-99.99,,2013-04-02 17:54:00,
2013-04-02 12:03:00,38.0,31.0,-100.00,WSW,255,17.0,21.0,74,-99.99,,,-99.99,,2013-04-02 18:03:00,
2013-04-02 12:12:00,39.0,31.0,-100.00,WSW,255,17.0,23.0,74,-99.99,,,-99.99,,2013-04-02 18:12:00,
2013-04-02 12:23:00,39.0,31.0,-100.00,West,260,18.0,24.0,74,-99.99,,,-99.99,,2013-04-02 18:23:00,
2013-04-02 12:34:00,40.0,32.0,-100.00,WSW,255,15.0,22.0,72,-99.99,,,-99.99,,2013-04-02 18:34:00,
2013-04-02 12:43:00,41.0,32.0,-100.00,WSW,245,16.0,21.0,71,-99.99,,,-99.99,,2013-04-02 18:43:00,
2013-04-02 12:54:00,40.0,32.0,-100.00,WSW,250,18.0,21.0,71,-99.99,,,-99.99,,2013-04-02 18:54:00,
2013-04-02 13:03:00,40.0,32.0,-100.00,WSW,250,18.0,21.0,71,-99.99,,,-99.99,,2013-04-02 19:03:00,
2013-04-02 13:13:00,40.0,32.0,-100.00,WSW,250,15.0,22.0,72,-99.99,,,-99.99,,2013-04-02 19:13:00,
2013-04-02 13:23:00,41.0,32.0,-100.00,WSW,245,12.0,18.0,71,-99.99,,,-99.99,,2013-04-02 19:23:00,
2013-04-02 13:34:00,40.0,32.0,-100.00,WSW,250,14.0,19.0,72,-99.99,,,-99.99,,2013-04-02 19:34:00,
2013-04-02 13:45:00,41.0,32.0,-100.00,WSW,245,13.0,17.0,71,-99.99,,,-99.99,,2013-04-02 19:45:00,
2013-04-02 13:53:00,41.0,32.0,-100.00,WSW,245,14.0,17.0,71,-99.99,,,-99.99,,2013-04-02 19:53:00,
2013-04-02 14:03:00,41.0,32.0,-100.00,WSW,240,12.0,17.0,70,-99.99,,,-99.99,,2013-04-02 20:03:00,
2013-04-02 14:22:00,42.0,33.0,-100.00,SW,235,12.0,17.0,69,-99.99,,,-99.99,,2013-04-02 20:22:00,
2013-04-02 14:33:00,42.0,33.0,-100.00,SW,235,12.0,17.0,68,-99.99,,,-99.99,,2013-04-02 20:33:00,
2013-04-02 14:43:00,42.0,33.0,-100.00,SW,235,15.0,18.0,68,-99.99,,,-99.99,,2013-04-02 20:43:00,
2013-04-02 15:04:00,42.0,33.0,-100.00,SW,235,15.0,18.0,68,-99.99,,,-99.99,,2013-04-02 21:04:00,
2013-04-02 15:13:00,43.0,33.0,-100.00,SW,230,12.0,17.0,66,-99.99,,,-99.99,,2013-04-02 21:13:00,
2013-04-02 15:23:00,43.0,33.0,-100.00,SW,225,11.0,16.0,67,-99.99,,,-99.99,,2013-04-02 21:23:00,
2013-04-02 15:34:00,43.0,33.0,-100.00,SW,230,10.0,19.0,66,-99.99,,,-99.99,,2013-04-02 21:34:00,
2013-04-02 15:43:00,42.0,32.0,-100.00,SW,230,13.0,16.0,67,-99.99,,,-99.99,,2013-04-02 21:43:00,
2013-04-02 15:54:00,42.0,32.0,-100.00,SW,230,12.0,17.0,67,-99.99,,,-99.99,,2013-04-02 21:54:00,
2013-04-02 16:04:00,42.0,33.0,-100.00,SW,230,14.0,17.0,67,-99.99,,,-99.99,,2013-04-02 22:04:00,
2013-04-02 16:14:00,43.0,33.0,-100.00,SW,230,11.0,17.0,67,-99.99,,,-99.99,,2013-04-02 22:14:00,
2013-04-02 16:24:00,43.0,33.0,-100.00,SW,230,11.0,17.0,67,-99.99,,,-99.99,,2013-04-02 22:24:00,
2013-04-02 16:33:00,42.0,32.0,-100.00,SW,225,14.0,17.0,67,-99.99,,,-99.99,,2013-04-02 22:33:00,
2013-04-02 16:43:00,42.0,32.0,-100.00,SW,230,14.0,18.0,67,-99.99,,,-99.99,,2013-04-02 22:43:00,
2013-04-02 16:53:00,43.0,33.0,-100.00,SW,230,14.0,17.0,67,-99.99,,,-99.99,,2013-04-02 22:53:00,
2013-04-02 17:03:00,43.0,33.0,-100.00,SW,230,13.0,17.0,67,-99.99,,,-99.99,,2013-04-02 23:03:00,
2013-04-02 17:13:00,43.0,33.0,-100.00,SW,230,10.0,15.0,67,-99.99,,,-99.99,,2013-04-02 23:13:00,
2013-04-02 17:23:00,43.0,33.0,-100.00,SW,230,12.0,16.0,67,-99.99,,,-99.99,,2013-04-02 23:23:00,
2013-04-02 17:34:00,42.0,33.0,-100.00,SW,230,13.0,16.0,68,-99.99,,,-99.99,,2013-04-02 23:34:00,
2013-04-02 17:42:00,42.0,33.0,-100.00,SW,230,13.0,16.0,68,-99.99,,,-99.99,,2013-04-02 23:42:00,
2013-04-02 17:52:00,42.0,32.0,-100.00,SW,230,12.0,16.0,67,-99.99,,,-99.99,,2013-04-02 23:52:00,
2013-04-02 18:03:00,42.0,32.0,-100.00,SW,230,12.0,14.0,67,-99.99,,,-99.99,,2013-04-03 00:03:00,
2013-04-02 18:13:00,42.0,32.0,-100.00,SW,230,11.0,14.0,68,-99.99,,,-99.99,,2013-04-03 00:13:00,
2013-04-02 18:24:00,42.0,32.0,-100.00,SW,230,10.0,14.0,68,-99.99,,,-99.99,,2013-04-03 00:24:00,
2013-04-02 18:33:00,41.0,32.0,-100.00,SW,235,11.0,13.0,68,-99.99,,,-99.99,,2013-04-03 00:33:00,
2013-04-02 18:46:00,41.0,32.0,-100.00,WSW,240,10.0,15.0,69,-99.99,,,-99.99,,2013-04-03 00:46:00,
2013-04-02 18:53:00,40.0,32.0,-100.00,WSW,240,11.0,13.0,70,-99.99,,,-99.99,,2013-04-03 00:53:00,
2013-04-02 19:03:00,40.0,32.0,-100.00,WSW,245,9.0,12.0,71,-99.99,,,-99.99,,2013-04-03 01:03:00,
2013-04-02 19:12:00,40.0,32.0,-100.00,WSW,250,9.0,12.0,72,-99.99,,,-99.99,,2013-04-03 01:12:00,
2013-04-02 19:22:00,40.0,32.0,-100.00,WSW,250,9.0,12.0,72,-99.99,,,-99.99,,2013-04-03 01:22:00,
2013-04-02 19:33:00,39.0,32.0,-100.00,WSW,255,9.0,12.0,74,-99.99,,,-99.99,,2013-04-03 01:33:00,
2013-04-02 19:42:00,39.0,32.0,-100.00,West,265,9.0,12.0,75,-99.99,,,-99.99,,2013-04-03 01:42:00,
2013-04-02 19:53:00,39.0,32.0,-100.00,West,265,7.0,10.0,76,-99.99,,,-99.99,,2013-04-03 01:53:00,
2013-04-02 20:03:00,38.0,32.0,-100.00,West,270,7.0,9.0,78,-99.99,,,-99.99,,2013-04-03 02:03:00,
2013-04-02 20:13:00,38.0,32.0,-100.00,West,270,7.0,9.0,78,-99.99,,,-99.99,,2013-04-03 02:13:00,
2013-04-02 20:24:00,38.0,32.0,-100.00,West,280,9.0,11.0,79,-99.99,,,-99.99,,2013-04-03 02:24:00,
2013-04-02 20:34:00,37.0,32.0,-100.00,West,280,7.0,9.0,80,-99.99,,,-99.99,,2013-04-03 02:34:00,
2013-04-02 20:43:00,37.0,32.0,-100.00,West,280,7.0,9.0,80,-99.99,,,-99.99,,2013-04-03 02:43:00,
2013-04-02 21:04:00,37.0,32.0,-100.00,WNW,285,6.0,9.0,81,-99.99,,,-99.99,,2013-04-03 03:04:00,
2013-04-02 21:13:00,36.0,31.0,-100.00,WNW,290,6.0,6.0,81,-99.99,,,-99.99,,2013-04-03 03:13:00,
2013-04-02 21:23:00,36.0,31.0,-100.00,WNW,295,6.0,6.0,84,-99.99,,,-99.99,,2013-04-03 03:23:00,
2013-04-02 21:37:00,35.0,31.0,-100.00,WNW,300,6.0,7.0,84,-99.99,,,-99.99,,2013-04-03 03:37:00,
2013-04-02 21:43:00,35.0,31.0,-100.00,NW,305,7.0,7.0,85,-99.99,,,-99.99,,2013-04-03 03:43:00,
2013-04-02 21:53:00,35.0,31.0,-100.00,NW,305,6.0,7.0,86,-99.99,,,-99.99,,2013-04-03 03:53:00,
2013-04-02 22:03:00,35.0,32.0,-100.00,NW,310,6.0,7.0,87,-99.99,,,-99.99,,2013-04-03 04:03:00,
2013-04-02 22:12:00,36.0,32.0,-100.00,NW,310,5.0,6.0,87,-99.99,,,-99.99,,2013-04-03 04:12:00,
2013-04-02 22:23:00,36.0,33.0,-100.00,NW,310,6.0,7.0,87,-99.99,,,-99.99,,2013-04-03 04:23:00,
2013-04-02 22:33:00,36.0,33.0,-100.00,NW,315,5.0,6.0,88,-99.99,,,-99.99,,2013-04-03 04:33:00,
2013-04-02 22:43:00,36.0,33.0,-100.00,NW,315,6.0,6.0,88,-99.99,,,-99.99,,2013-04-03 04:43:00,
2013-04-02 22:53:00,36.0,33.0,-100.00,NW,315,6.0,7.0,88,-99.99,,,-99.99,,2013-04-03 04:53:00,
2013-04-02 23:02:00,36.0,33.0,-100.00,NW,315,7.0,7.0,88,-99.99,,,-99.99,,2013-04-03 05:02:00,
2013-04-02 23:12:00,36.0,33.0,-100.00,NW,315,7.0,9.0,89,-99.99,,,-99.99,,2013-04-03 05:12:00,
2013-04-02 23:22:00,36.0,34.0,-100.00,NW,320,7.0,10.0,89,-99.99,,,-99.99,,2013-04-03 05:22:00,
2013-04-02 23:32:00,36.0,34.0,-100.00,NW,320,9.0,10.0,90,-99.99,,,-99.99,,2013-04-03 05:32:00,
2013-04-02 23:42:00,36.0,34.0,-100.00,NW,325,10.0,12.0,91,-99.99,,,-99.99,,2013-04-03 05:42:00,
2013-04-02 23:52:00,36.0,34.0,-100.00,NNW,330,7.0,10.0,92,-99.99,,,-99.99,,2013-04-03 05:52:00,